カタログに戻る

EQUATOR S

運用中科学HEO
NORAD 25068·PAYLOAD·🇩🇪 Germany

打ち上げ Dec 2, 1997 から Guiana Space Centre

Loading…

次のパス (今後24時間)

TLE

最新Source: Space-Track

元期: Sep 14, 2026, 06:07 UTC

1 25068U 97075B   26257.25490945 -.00000037  00000-0  81993-3 0  9993
2 25068   2.7218 233.5698 8288562  22.3717 358.6596  1.07780407113427

AllMySatでEQUATOR Sをリアルタイム追跡

Download on the App Store